Showing default

USA 159, 26880

Orbit data source: Space-Track

USA 159, 26880 is a payload satellite owned by USAF SMC (US) in GEO that was launched on Mon, 06 Aug 2001 UTC via a TITAN 402B/IUS launch vehicle from the Air Force Eastern Test Range (AFETR). Payloads include a variety of satellites, spacecraft, and rockets equipped with specific instruments for various scientific and technological missions. These include communications satellites like Starlink; space stations such as the ISS; scientific satellites like the Hubble; Earth observation satellites from companies like Planet Labs, Umbra, and HawkEye 360; GPS; miniature CubeSats for education and research; and military/defense satellites.

Loading next visibility...
USA 159 details
Identifier
26880, 2001-033A
Orbit
GEO
Last TLE update1 day ago
Origin
Flag of USUSAF SMC (US)
ManufacturerTRW
MissionOperational Defense Classified
Bus & MotorDSP B18, MRE-4
Mass~2,360 kg wet, ~2,200 kg dry
Launch date (UTC)
2001-08-06 (23 years ago)
Launch vehicle
TITAN 402B/IUS
Launch site
Air Force Eastern Test Range (AFETR)
Object type
Payload
Rocket body
Debris
Shape & HBRCyl + 1 Pan, 11.5 m
Radar Cross Section31.528 m², Large (>1 m²)

Expand to show TLE details & history

TLE from 1 day ago
0 USA 159
1 26880U 01033A   24360.44773502 -.00000282  00000-0  00000-0 0  9991
2 26880  12.2759  20.0724 0000751 236.4931 309.6762  1.00281135 27562
Epoch: 2024-12-25T10:44Z
Definitive object data (Epoch: 2024-12-25T10:44:44.305Z)
Latitude-1.31224°
Longitude-49.52905°
Altitude35,781.669 km
Speed3.075 km/s
True Right ascension13h 44m 23s
True Declination-1° 18' 39"
Sunlit
Object was in daylight at TLE epoch
Visualization TLE readout
Latitude-1.53867°
Longitude-48.49075°
Altitude35,781.764 km
Speed3.075 km/s
Apparent Right ascension14h 11m 58s
Apparent Declination-7° 29' 11"
Sunlit
Object is in daylight
Visualization observer readout
Local Sidereal Time10:06:09
Azimuth114.881° SE
Elevation16.247°
Doppler factor1
Orbital elements
Apogee altitude35,788.14 km
Perigee altitude35,781.807 km
Semi-major axis42,163.111 km
Eccentricity0.0000751
Inclination12.2759°
RAAN20.0724°
Arg. of periapsis236.4931°
True anomaly309.66958°
Mean anomaly309.6762°
Eccentric anomaly309.67289°
Mean motion0.25069 °/min
BSTARUnknown
Orbital period1436.01 mins
Loading historical data...
26880 neighbors
Authenticating...
Loading maneuver chart data...
Loading historical data...
Loading historical data...
Loading historical data...
Loading historical data...
Loading historical data...
Loading historical data...
Loading historical data...
Other satellites on launch #33 in the year 2001 (2001-08-06 UTC)

USA 159 Visibility forecast

Observer location: undefined°, undefined

Span
Click to sort rows by Start time (UTC) header in descending order
Start Az.
Max El. time (UTC)
Max El. Az.
Max El.
End time (UTC)
End Az.
187 mins2024-12-26 10:44:55.519Z114.895° SE2024-12-26 10:44:55.519Z114.895° SE15.623°2024-12-26 13:51:55.519Z121.401° SE
933 mins2024-12-26 19:11:55.519Z119.557° SE2024-12-27 03:46:55.519Z103.364° ESE23.813°2024-12-27 10:44:55.519Z115.055° SE
|